Wind_Speed
29 29 28 29 27 25 24 22 22 21 21 20 19 19 19 20 20 18 18 17 17 14 13 9 10 11 11 9 7 5 4 3 5
30 27 29 31 29 27 27 27 25 23 22 22 21 20 21 21 21 20 19 19 20 15 15 14 12 14 14 13 9 8 8 2 3
31 32 30 29 31 30 29 28 27 25 24 22 20 21 19 20 22 22 22 22 19 17 18 16 16 15 16 16 13 11 11 8 5
28 32 31 32 33 30 29 29 28 26 24 22 19 16 15 15 18 21 23 23 24 21 22 19 19 20 19 19 17 14 13 14 11
27 32 30 33 32 28 28 29 30 26 23 22 20 19 18 14 14 15 16 18 22 23 21 22 23 24 23 19 20 17 15 16 17
30 30 32 34 34 33 30 26 22 21 25 25 25 24 24 20 14 13 13 16 20 20 18 19 22 23 25 23 22 20 17 16 18
36 33 29 28 32 32 31 29 29 26 27 25 25 26 29 26 19 16 13 15 16 13 15 14 15 16 19 23 22 23 19 16 16
42 41 39 37 37 36 36 34 32 29 27 23 24 24 25 20 19 18 17 16 15 14 13 13 14 15 14 17 20 21 20 18 19
41 43 45 40 39 40 40 37 32 31 25 23 23 15 11 19 22 23 21 20 19 17 17 14 12 11 13 14 15 16 18 21 23
41 42 43 43 40 44 45 42 38 34 32 28 25 23 19 20 18 21 25 24 23 21 21 21 18 16 15 16 18 19 21 24 28
40 43 46 41 41 45 47 48 43 40 34 33 30 25 22 19 19 22 27 28 24 25 25 26 24 23 24 23 21 23 25 30 33
36 37 38 43 42 42 46 46 47 48 44 42 41 37 28 25 25 27 28 28 25 26 29 31 31 32 32 32 28 29 32 36 39
38 38 40 40 40 37 33 34 39 41 40 42 40 37 28 28 27 25 23 28 34 36 38 36 35 38 40 40 41 43 37 36 39
38 40 41 42 39 36 32 30 29 32 31 32 31 33 31 31 28 26 25 27 32 35 38 42 46 49 46 50 48 49 52 47 49
41 40 41 43 41 37 35 33 34 33 30 28 32 31 30 32 29 30 33 34 37 38 42 50 57 54 53 54 51 41 47 47 41
43 42 41 41 41 40 37 36 35 34 32 32 31 32 32 33 34 38 39 39 41 39 42 45 49 48 50 50 48 50 48 47 51
47 45 45 42 43 42 40 38 38 34 37 37 35 35 38 40 43 41 40 42 42 43 46 49 50 50 50 49 48 49 50 52 53
47 44 40 42 43 42 40 35 38 38 38 39 40 41 42 44 43 41 42 44 45 41 43 45 48 52 51 54 54 52 53 57 60
50 47 47 41 36 37 38 38 29 31 38 38 38 39 41 42 44 45 47 48 48 47 48 50 53 56 56 55 52 52 55 60 62
58 56 47 42 42 39 36 34 32 30 34 34 35 37 40 44 45 44 43 47 51 53 56 54 53 54 54 54 56 51 50 53 55
Wind_Direction
213 203 205 205 200 196 197 197 201 200 199 204 208 215 220 227 235 238 236 240 250 247 247 254 266 256 241 239 254 251 183 48 6
223 213 204 207 198 196 198 198 201 202 204 210 213 220 226 232 239 242 242 239 245 252 251 247 259 266 246 244 253 248 203 192 334
235 220 206 211 204 201 203 205 205 205 210 219 226 230 240 244 242 241 243 247 249 254 259 256 256 265 252 244 249 248 226 214 258
221 216 209 208 209 205 206 208 209 212 218 222 231 241 237 243 250 250 247 246 250 254 258 257 254 257 257 251 243 251 242 226 241
222 206 208 208 211 211 213 215 218 221 225 230 236 236 232 242 262 264 256 246 248 252 257 259 259 257 259 258 247 251 256 248 245
211 211 202 207 209 216 221 226 238 242 243 241 235 237 237 246 266 270 265 254 252 257 262 265 259 255 259 261 249 250 259 270 268
212 213 215 218 229 229 225 227 231 242 243 247 252 249 240 247 263 260 257 257 264 264 266 271 267 259 253 257 256 247 254 266 274
215 215 216 220 224 221 220 220 229 239 243 255 266 266 249 260 259 262 268 267 259 257 267 267 268 268 269 263 269 261 261 272 276
220 221 223 224 222 220 220 224 231 238 241 258 260 249 254 263 264 260 258 258 256 258 258 259 258 267 273 272 274 271 271 279 281
215 219 222 224 223 222 223 226 229 237 245 248 253 248 260 266 260 263 261 258 256 256 260 257 261 259 262 267 267 271 273 273 274
221 223 225 227 226 226 228 230 232 232 239 250 249 248 256 266 272 268 261 260 255 258 262 264 261 264 264 260 262 267 272 273 273
224 222 226 231 234 232 234 237 233 235 236 249 248 250 249 254 265 260 260 250 253 257 261 261 257 257 259 260 259 260 262 264 269
221 228 228 229 231 235 234 238 241 245 249 241 242 246 249 256 252 250 250 249 247 254 260 264 263 260 259 261 266 270 265 262 268
221 226 231 238 235 237 236 232 238 240 241 238 239 238 240 241 240 239 248 259 261 259 261 261 265 259 257 256 260 265 269 269 270
225 225 228 233 240 245 244 242 239 237 240 235 230 231 234 236 239 245 253 256 265 259 261 266 267 274 276 280 283 297 288 309 286
229 232 233 237 238 241 245 247 243 238 233 237 240 241 246 246 250 258 259 258 261 257 257 261 272 279 284 283 289 296 299 292 298
235 236 236 237 241 242 242 245 244 238 234 231 235 243 248 252 259 258 258 261 259 260 261 262 266 271 275 276 286 289 288 292 286
238 239 238 236 239 242 242 240 241 240 240 239 236 234 240 246 250 253 258 259 260 267 261 263 266 271 277 282 285 283 282 283 283
240 237 235 235 232 236 241 243 238 244 243 244 244 245 245 244 250 254 256 256 261 266 269 271 274 279 279 279 280 283 281 280 279
242 241 237 237 239 239 241 245 246 246 243 246 246 248 246 244 247 251 254 258 260 266 272 274 273 273 275 280 282 279 279 283 284
Height
5874 5876 5881 5886 5889 5892 5895 5899 5902 5905 5908 5910 5914 5916 5917 5918 5920 5922 5923 5924 5924 5926 5928 5930 5930 5930 5932 5933 5933 5934 5934 5934 5934
5871 5876 5879 5883 5886 5889 5893 5896 5899 5903 5905 5908 5910 5913 5914 5915 5917 5918 5919 5920 5921 5924 5926 5927 5928 5929 5930 5931 5931 5931 5932 5932 5933
5868 5872 5876 5881 5883 5886 5890 5893 5896 5899 5902 5904 5908 5909 5911 5912 5913 5914 5915 5916 5918 5921 5923 5925 5926 5927 5927 5927 5927 5927 5929 5930 5931
5863 5868 5872 5876 5881 5883 5886 5889 5892 5896 5898 5901 5904 5906 5908 5909 5910 5911 5911 5913 5915 5917 5919 5921 5923 5923 5923 5924 5924 5924 5925 5926 5928
5860 5863 5869 5872 5876 5880 5883 5887 5890 5893 5896 5898 5900 5901 5903 5905 5906 5907 5908 5910 5911 5912 5915 5916 5917 5918 5919 5920 5921 5921 5922 5923 5924
5854 5860 5864 5868 5872 5876 5881 5884 5888 5891 5893 5894 5895 5897 5899 5901 5902 5903 5905 5906 5907 5909 5910 5911 5911 5913 5914 5915 5917 5919 5919 5921 5921
5848 5853 5858 5864 5868 5873 5877 5880 5883 5886 5888 5891 5892 5892 5894 5898 5900 5900 5901 5902 5903 5906 5906 5907 5908 5908 5909 5910 5912 5913 5915 5916 5916
5841 5846 5851 5855 5861 5866 5870 5874 5878 5881 5883 5886 5887 5888 5890 5894 5894 5895 5895 5897 5899 5901 5903 5904 5905 5905 5906 5906 5907 5909 5910 5911 5912
5835 5840 5844 5850 5855 5860 5864 5867 5871 5875 5879 5881 5882 5885 5888 5889 5890 5891 5891 5893 5894 5896 5898 5900 5901 5902 5903 5903 5904 5905 5905 5906 5906
5830 5834 5837 5843 5848 5852 5856 5860 5864 5869 5872 5873 5876 5880 5882 5884 5885 5885 5886 5888 5889 5892 5893 5894 5896 5897 5898 5899 5899 5899 5900 5899 5898
5823 5827 5831 5836 5841 5845 5848 5852 5858 5862 5864 5868 5871 5873 5876 5878 5879 5880 5881 5883 5886 5887 5888 5890 5891 5892 5892 5892 5894 5894 5894 5893 5890
5818 5822 5826 5830 5834 5837 5840 5844 5850 5852 5857 5860 5863 5867 5871 5873 5875 5875 5876 5879 5881 5881 5880 5881 5882 5882 5883 5883 5883 5882 5882 5882 5881
5809 5813 5817 5820 5824 5829 5832 5839 5841 5844 5849 5852 5856 5860 5864 5865 5867 5869 5870 5872 5872 5873 5873 5873 5874 5874 5874 5875 5874 5873 5873 5872 5867
5799 5804 5810 5813 5819 5823 5829 5831 5834 5838 5841 5846 5852 5852 5855 5857 5859 5861 5862 5863 5865 5866 5866 5865 5865 5863 5863 5862 5863 5864 5862 5861 5855
5790 5795 5799 5804 5809 5814 5819 5825 5828 5831 5834 5841 5840 5845 5848 5850 5852 5854 5855 5856 5858 5858 5858 5859 5857 5857 5855 5851 5840 5851 5851 5849 5846
5780 5785 5790 5795 5801 5805 5810 5815 5820 5823 5827 5829 5833 5836 5840 5842 5844 5846 5846 5848 5848 5849 5850 5850 5850 5848 5848 5847 5842 5841 5838 5838 5833
5769 5775 5780 5786 5791 5795 5800 5806 5809 5813 5817 5821 5823 5826 5829 5831 5833 5836 5837 5837 5838 5839 5840 5840 5839 5839 5837 5835 5833 5830 5828 5826 5822
5757 5763 5769 5774 5780 5784 5789 5794 5799 5803 5807 5811 5815 5818 5820 5822 5824 5825 5827 5827 5828 5829 5829 5828 5827 5825 5823 5822 5822 5819 5817 5814 5809
5745 5752 5758 5763 5769 5773 5778 5784 5788 5793 5796 5799 5802 5806 5808 5811 5813 5815 5816 5817 5816 5816 5816 5816 5815 5815 5812 5810 5810 5809 5805 5801 5797
5731 5739 5745 5751 5757 5762 5767 5772 5777 5782 5785 5788 5790 5793 5796 5798 5801 5802 5803 5803 5803 5803 5803 5803 5802 5800 5798 5796 5795 5791 5788 5786 5782